| time (UTC) | temp C | wind direction | speed KPH | gust KPH | rain 1hr cm | rain 24hr cm | rain mn cm | humidity % | barometer mb |
| 20260505022513 | 15 | 161 | 0.0 | 0.0 | 0.00 | 0.00 | 0.00 | 72 | 1010.6 |
| 20260505022010 | 15 | 149 | 0.0 | 0.0 | 0.00 | 0.00 | 0.00 | 71 | 1010.5 |
| 20260505021506 | 15 | 154 | 0.0 | 0.0 | 0.00 | 0.00 | 0.00 | 71 | 1010.6 |
| 20260505021003 | 15 | 151 | 0.0 | 0.0 | 0.00 | 0.00 | 0.00 | 70 | 1010.7 |
| 20260505020457 | 15 | 148 | 0.0 | 0.0 | 0.00 | 0.00 | 0.00 | 69 | 1010.7 |
| 20260505015954 | 15 | 160 | 0.0 | 0.0 | 0.00 | 0.00 | 0.00 | 70 | 1010.6 |
| 20260505015452 | 15 | 152 | 0.0 | 0.0 | 0.00 | 0.00 | 0.00 | 69 | 1010.3 |
| 20260505014949 | 15 | 142 | 0.0 | 0.0 | 0.00 | 0.00 | 0.00 | 68 | 1010.6 |
| 20260505014446 | 15 | 140 | 0.0 | 0.0 | 0.00 | 0.00 | 0.00 | 68 | 1010.6 |
| 20260505013943 | 15 | 158 | 0.0 | 0.0 | 0.00 | 0.00 | 0.00 | 68 | 1010.4 |
| 20260505013440 | 15 | 150 | 0.0 | 0.0 | 0.00 | 0.00 | 0.00 | 67 | 1010.5 |
| 20260505012937 | 16 | 140 | 0.0 | 0.0 | 0.00 | 0.00 | 0.00 | 66 | 1010.5 |
| 20260505012435 | 16 | 140 | 0.0 | 0.0 | 0.00 | 0.00 | 0.00 | 66 | 1010.4 |
| 20260505011931 | 16 | 150 | 0.0 | 0.0 | 0.00 | 0.00 | 0.00 | 66 | 1010.6 |
| 20260505011428 | 16 | 159 | 0.0 | 0.0 | 0.00 | 0.00 | 0.00 | 66 | 1010.4 |
| 20260505010925 | 16 | 150 | 0.0 | 0.0 | 0.00 | 0.00 | 0.00 | 65 | 1010.4 |
| 20260505010420 | 16 | 178 | 0.0 | 0.0 | 0.00 | 0.00 | 0.00 | 64 | 1010.0 |
| 20260505005917 | 16 | 155 | 0.0 | 0.0 | 0.00 | 0.00 | 0.00 | 63 | 1010.1 |
| 20260505005414 | 16 | 153 | 0.0 | 0.0 | 0.00 | 0.00 | 0.00 | 61 | 1010.1 |
| 20260505004911 | 17 | 149 | 0.0 | 0.0 | 0.00 | 0.00 | 0.00 | 60 | 1009.8 |
| 20260505004407 | 17 | 141 | 0.0 | 0.0 | 0.00 | 0.00 | 0.00 | 58 | 1009.9 |
| 20260505003905 | 17 | 135 | 0.0 | 0.0 | 0.00 | 0.00 | 0.00 | 56 | 1010.0 |
| 20260505003401 | 17 | 146 | 0.0 | 0.0 | 0.00 | 0.00 | 0.00 | 53 | 1010.1 |
| 20260505002858 | 17 | 178 | 0.0 | 0.0 | 0.00 | 0.00 | 0.00 | 50 | 1009.9 |
| 20260505002354 | 17 | 156 | 0.0 | 0.0 | 0.00 | 0.00 | 0.00 | 50 | 1009.9 |
| 20260505001853 | 17 | 153 | 0.0 | 0.0 | 0.00 | 0.00 | 0.00 | 49 | 1009.8 |
| 20260505001349 | 17 | 156 | 0.0 | 0.0 | 0.00 | 0.00 | 0.00 | 48 | 1009.8 |
| 20260505000847 | 18 | 151 | 0.0 | 0.0 | 0.00 | 0.00 | 0.00 | 48 | 1009.6 |
| 20260505000344 | 18 | 151 | 0.0 | 0.0 | 0.00 | 0.00 | 0.00 | 47 | 1009.6 |
| 20260504235841 | 18 | 140 | 0.0 | 0.0 | 0.00 | 0.00 | 0.00 | 45 | 1009.5 |
| 20260504235338 | 19 | 170 | 0.0 | 0.0 | 0.00 | 0.00 | 0.00 | 44 | 1009.5 |
| 20260504234835 | 19 | 171 | 0.0 | 0.0 | 0.00 | 0.00 | 0.00 | 43 | 1009.4 |
| 20260504234332 | 20 | 202 | 0.0 | 0.0 | 0.00 | 0.00 | 0.00 | 42 | 1009.5 |
| 20260504233829 | 20 | 161 | 0.0 | 0.0 | 0.00 | 0.00 | 0.00 | 41 | 1009.6 |
| 20260504233324 | 20 | 168 | 0.0 | 0.0 | 0.00 | 0.00 | 0.00 | 41 | 1009.3 |
| 20260504232822 | 20 | 136 | 0.0 | 0.0 | 0.00 | 0.00 | 0.00 | 42 | 1009.3 |
| 20260504232319 | 20 | 161 | 0.0 | 0.0 | 0.00 | 0.00 | 0.00 | 40 | 1009.4 |
| 20260504231815 | 21 | 178 | 0.0 | 0.0 | 0.00 | 0.00 | 0.00 | 38 | 1009.5 |
| 20260504231312 | 21 | 229 | 1.6 | 3.2 | 0.00 | 0.00 | 0.00 | 39 | 1009.4 |
| 20260504230808 | 20 | 182 | 0.0 | 0.0 | 0.00 | 0.00 | 0.00 | 39 | 1009.6 |
| 20260504230306 | 21 | 226 | 0.0 | 0.0 | 0.00 | 0.00 | 0.00 | 39 | 1009.3 |
| 20260504225805 | 21 | 179 | 0.0 | 0.0 | 0.00 | 0.00 | 0.00 | 38 | 1009.5 |
| 20260504225301 | 21 | 156 | 0.0 | 0.0 | 0.00 | 0.00 | 0.00 | 38 | 1009.3 |
| 20260504224758 | 21 | 159 | 3.2 | 4.8 | 0.00 | 0.00 | 0.00 | 37 | 1009.3 |
| 20260504224255 | 21 | 253 | 1.6 | 3.2 | 0.00 | 0.00 | 0.00 | 37 | 1009.3 |
| 20260504223751 | 21 | 196 | 0.0 | 0.0 | 0.00 | 0.00 | 0.00 | 35 | 1009.2 |
| 20260504223247 | 21 | 140 | 0.0 | 0.0 | 0.00 | 0.00 | 0.00 | 36 | 1009.3 |
| 20260504222744 | 21 | 216 | 0.0 | 0.0 | 0.00 | 0.00 | 0.00 | 36 | 1009.4 |
| 20260504222241 | 21 | 197 | 0.0 | 1.6 | 0.00 | 0.00 | 0.00 | 36 | 1009.4 |
| 20260504221739 | 22 | 174 | 3.2 | 4.8 | 0.00 | 0.00 | 0.00 | 35 | 1009.3 |
| 20260504221236 | 22 | 163 | 3.2 | 8.0 | 0.00 | 0.00 | 0.00 | 35 | 1009.4 |
| 20260504220732 | 22 | 100 | 0.0 | 1.6 | 0.00 | 0.00 | 0.00 | 35 | 1009.2 |
| 20260504220229 | 22 | 154 | 0.0 | 0.0 | 0.00 | 0.00 | 0.00 | 35 | 1009.3 |
| 20260504215727 | 22 | 84 | 0.0 | 0.0 | 0.00 | 0.00 | 0.00 | 34 | 1009.3 |
| 20260504215223 | 22 | 323 | 0.0 | 0.0 | 0.00 | 0.00 | 0.00 | 35 | 1009.3 |
| 20260504214719 | 22 | 139 | 0.0 | 0.0 | 0.00 | 0.00 | 0.00 | 34 | 1009.1 |
| 20260504214215 | 22 | 111 | 0.0 | 0.0 | 0.00 | 0.00 | 0.00 | 35 | 1009.4 |
| 20260504213712 | 22 | 152 | 0.0 | 0.0 | 0.00 | 0.00 | 0.00 | 34 | 1009.3 |
| 20260504213209 | 22 | 27 | 0.0 | 0.0 | 0.00 | 0.00 | 0.00 | 34 | 1009.3 |
| 20260504212706 | 22 | 238 | 0.0 | 1.6 | 0.00 | 0.00 | 0.00 | 34 | 1009.4 |
| 20260504212203 | 22 | 132 | 3.2 | 3.2 | 0.00 | 0.00 | 0.00 | 33 | 1009.3 |
| 20260504211700 | 22 | 180 | 0.0 | 0.0 | 0.00 | 0.00 | 0.00 | 33 | 1009.3 |
| 20260504211155 | 22 | 225 | 4.8 | 8.0 | 0.00 | 0.00 | 0.00 | 33 | 1009.1 |
| 20260504210654 | 22 | 168 | 0.0 | 0.0 | 0.00 | 0.00 | 0.00 | 33 | 1009.3 |
| 20260504210150 | 22 | 147 | 0.0 | 3.2 | 0.00 | 0.00 | 0.00 | 33 | 1009.5 |
| 20260504205647 | 23 | 247 | 1.6 | 3.2 | 0.00 | 0.00 | 0.00 | 34 | 1009.2 |
| 20260504205144 | 22 | 154 | 0.0 | 0.0 | 0.00 | 0.00 | 0.00 | 34 | 1009.2 |
| 20260504204643 | 23 | 182 | 1.6 | 3.2 | 0.00 | 0.00 | 0.00 | 33 | 1009.4 |
| 20260504204142 | 23 | 222 | 4.8 | 11.3 | 0.00 | 0.00 | 0.00 | 33 | 1009.0 |
| 20260504203640 | 23 | 136 | 0.0 | 0.0 | 0.00 | 0.00 | 0.00 | 33 | 1009.4 |
| 20260504203137 | 23 | 150 | 0.0 | 0.0 | 0.00 | 0.00 | 0.00 | 35 | 1009.2 |
| 20260504202637 | 23 | 112 | 0.0 | 1.6 | 0.00 | 0.00 | 0.00 | 33 | 1008.9 |
| 20260504202134 | 23 | 245 | 3.2 | 4.8 | 0.00 | 0.00 | 0.00 | 33 | 1009.2 |
| 20260504201631 | 23 | 84 | 0.0 | 0.0 | 0.00 | 0.00 | 0.00 | 32 | 1009.3 |
| 20260504201129 | 23 | 183 | 0.0 | 3.2 | 0.00 | 0.00 | 0.00 | 32 | 1009.2 |
| 20260504200626 | 23 | 10 | 0.0 | 1.6 | 0.00 | 0.00 | 0.00 | 30 | 1009.5 |
| 20260504200122 | 23 | 170 | 4.8 | 4.8 | 0.00 | 0.00 | 0.00 | 31 | 1009.6 |
| 20260504195618 | 23 | 343 | 1.6 | 1.6 | 0.00 | 0.00 | 0.00 | 31 | 1009.5 |
| 20260504195115 | 24 | 130 | 0.0 | 3.2 | 0.00 | 0.00 | 0.00 | 34 | 1009.5 |
| 20260504194612 | 24 | 160 | 1.6 | 3.2 | 0.00 | 0.00 | 0.00 | 30 | 1009.5 |
| 20260504194107 | 23 | 170 | 1.6 | 4.8 | 0.00 | 0.00 | 0.00 | 31 | 1009.8 |
| 20260504193604 | 23 | 158 | 1.6 | 1.6 | 0.00 | 0.00 | 0.00 | 32 | 1009.8 |
| 20260504193103 | 24 | 135 | 0.0 | 1.6 | 0.00 | 0.00 | 0.00 | 30 | 1009.7 |
| 20260504192600 | 24 | 324 | 1.6 | 3.2 | 0.00 | 0.00 | 0.00 | 31 | 1009.9 |
| 20260504192058 | 23 | 275 | 0.0 | 1.6 | 0.00 | 0.00 | 0.00 | 32 | 1010.0 |
| 20260504191556 | 23 | 89 | 4.8 | 12.9 | 0.00 | 0.00 | 0.00 | 31 | 1010.2 |
| 20260504191052 | 23 | 170 | 1.6 | 3.2 | 0.00 | 0.00 | 0.00 | 32 | 1009.9 |
| 20260504190548 | 24 | 159 | 0.0 | 0.0 | 0.00 | 0.00 | 0.00 | 34 | 1009.9 |
| 20260504190044 | 23 | 227 | 3.2 | 4.8 | 0.00 | 0.00 | 0.00 | 34 | 1010.1 |
| 20260504185542 | 23 | 221 | 8.0 | 12.9 | 0.00 | 0.00 | 0.00 | 32 | 1010.3 |
| 20260504185038 | 23 | 6 | 1.6 | 3.2 | 0.00 | 0.00 | 0.00 | 33 | 1010.4 |
| 20260504184534 | 23 | 220 | 4.8 | 4.8 | 0.00 | 0.00 | 0.00 | 35 | 1010.5 |
| 20260504184029 | 23 | 243 | 8.0 | 12.9 | 0.00 | 0.00 | 0.00 | 32 | 1010.6 |
| 20260504183526 | 23 | 93 | 0.0 | 0.0 | 0.00 | 0.00 | 0.00 | 33 | 1010.4 |
| 20260504183025 | 23 | 148 | 3.2 | 8.0 | 0.00 | 0.00 | 0.00 | 33 | 1010.9 |
| 20260504182521 | 24 | 222 | 0.0 | 1.6 | 0.00 | 0.00 | 0.00 | 33 | 1010.9 |
| 20260504182019 | 23 | 138 | 0.0 | 0.0 | 0.00 | 0.00 | 0.00 | 33 | 1010.8 |
| 20260504181515 | 23 | 224 | 1.6 | 4.8 | 0.00 | 0.00 | 0.00 | 33 | 1010.9 |
| 20260504181014 | 22 | 65 | 0.0 | 0.0 | 0.00 | 0.00 | 0.00 | 34 | 1011.0 |
| 20260504180512 | 22 | 349 | 3.2 | 4.8 | 0.00 | 0.00 | 0.00 | 32 | 1011.1 |
| 20260504180011 | 22 | 167 | 6.4 | 9.7 | 0.00 | 0.00 | 0.00 | 34 | 1011.1 |
| 20260504175508 | 22 | 158 | 1.6 | 3.2 | 0.00 | 0.00 | 0.00 | 33 | 1011.2 |
| 20260504175005 | 22 | 137 | 0.0 | 0.0 | 0.00 | 0.00 | 0.00 | 36 | 1011.5 |
| 20260504174503 | 22 | 91 | 0.0 | 1.6 | 0.00 | 0.00 | 0.00 | 33 | 1011.2 |
| 20260504173959 | 23 | 69 | 1.6 | 3.2 | 0.00 | 0.00 | 0.00 | 31 | 1011.4 |
| 20260504173456 | 22 | 241 | 4.8 | 8.0 | 0.00 | 0.00 | 0.00 | 32 | 1011.6 |
| 20260504172954 | 22 | 119 | 3.2 | 4.8 | 0.00 | 0.00 | 0.00 | 33 | 1011.4 |
| 20260504172449 | 22 | 171 | 0.0 | 0.0 | 0.00 | 0.00 | 0.00 | 37 | 1011.5 |
| 20260504171946 | 22 | 149 | 0.0 | 0.0 | 0.00 | 0.00 | 0.00 | 35 | 1011.4 |
| 20260504171443 | 22 | 281 | 0.0 | 3.2 | 0.00 | 0.00 | 0.00 | 37 | 1011.8 |
| 20260504170940 | 22 | 136 | 0.0 | 1.6 | 0.00 | 0.00 | 0.00 | 35 | 1011.5 |
| 20260504170436 | 22 | 134 | 0.0 | 0.0 | 0.00 | 0.00 | 0.00 | 34 | 1011.7 |
| 20260504160355 | 21 | 139 | 0.0 | 0.0 | 0.00 | 0.00 | 0.00 | 38 | 1012.4 |
| 20260504150820 | 20 | 170 | 0.0 | 0.0 | 0.00 | 0.00 | 0.00 | 46 | 1013.0 |
| 20260504150316 | 19 | 133 | 0.0 | 0.0 | 0.00 | 0.00 | 0.00 | 46 | 1013.2 |
| 20260504141247 | 17 | 136 | 0.0 | 0.0 | 0.00 | 0.00 | 0.00 | 56 | 1013.1 |
| 20260504140743 | 16 | 201 | 8.0 | 16.1 | 0.00 | 0.00 | 0.00 | 56 | 1013.3 |
| 20260504140239 | 16 | 113 | 0.0 | 1.6 | 0.00 | 0.00 | 0.00 | 57 | 1013.3 |
| 20260504130708 | 15 | 186 | 6.4 | 9.7 | 0.00 | 0.00 | 0.00 | 62 | 1013.6 |
| 20260504130203 | 14 | 254 | 0.0 | 0.0 | 0.00 | 0.00 | 0.00 | 67 | 1013.9 |
| 20260504120127 | 12 | 199 | 0.0 | 1.6 | 0.00 | 0.00 | 0.00 | 77 | 1014.2 |
| 20260504110555 | 8 | 148 | 0.0 | 0.0 | 0.00 | 0.00 | 0.00 | 86 | 1014.7 |
| 20260504100517 | 6 | 148 | 0.0 | 0.0 | 0.00 | 0.00 | 0.00 | 85 | 1014.6 |
| 20260504081910 | 8 | 147 | 0.0 | 0.0 | 0.00 | 0.00 | 0.00 | 70 | 1014.5 |
| 20260504081407 | 8 | 165 | 0.0 | 0.0 | 0.00 | 0.00 | 0.00 | 69 | 1014.5 |
| 20260504080903 | 8 | 142 | 0.0 | 0.0 | 0.00 | 0.00 | 0.00 | 69 | 1014.4 |
| 20260504080400 | 8 | 142 | 0.0 | 0.0 | 0.00 | 0.00 | 0.00 | 69 | 1014.4 |
| 20260504070327 | 7 | 148 | 0.0 | 0.0 | 0.00 | 0.00 | 0.00 | 69 | 1014.0 |
| 20260504060247 | 8 | 186 | 0.0 | 0.0 | 0.00 | 0.00 | 0.00 | 66 | 1014.1 |
| 20260504050715 | 7 | 169 | 0.0 | 0.0 | 0.00 | 0.00 | 0.00 | 64 | 1014.1 |
| 20260504050212 | 7 | 193 | 0.0 | 0.0 | 0.00 | 0.00 | 0.00 | 64 | 1014.1 |
| 20260504045709 | 7 | 144 | 0.0 | 0.0 | 0.00 | 0.00 | 0.00 | 65 | 1013.9 |
| 20260504045204 | 7 | 140 | 0.0 | 0.0 | 0.00 | 0.00 | 0.00 | 65 | 1014.0 |
| 20260504044702 | 7 | 171 | 0.0 | 0.0 | 0.00 | 0.00 | 0.00 | 64 | 1013.8 |
| 20260504044159 | 8 | 160 | 0.0 | 0.0 | 0.00 | 0.00 | 0.00 | 64 | 1013.9 |
| 20260504043655 | 8 | 185 | 0.0 | 0.0 | 0.00 | 0.00 | 0.00 | 62 | 1013.9 |
| 20260504043153 | 7 | 173 | 0.0 | 0.0 | 0.00 | 0.00 | 0.00 | 62 | 1014.0 |
| 20260504042650 | 7 | 146 | 0.0 | 0.0 | 0.00 | 0.00 | 0.00 | 64 | 1014.0 |
| 20260504042146 | 7 | 158 | 0.0 | 0.0 | 0.00 | 0.00 | 0.00 | 66 | 1013.7 |
| 20260504041642 | 7 | 170 | 0.0 | 0.0 | 0.00 | 0.00 | 0.00 | 64 | 1013.8 |
| 20260504041138 | 7 | 158 | 0.0 | 0.0 | 0.00 | 0.00 | 0.00 | 63 | 1013.8 |
| 20260504040636 | 7 | 159 | 0.0 | 0.0 | 0.00 | 0.00 | 0.00 | 64 | 1013.6 |
| 20260504040133 | 7 | 147 | 0.0 | 0.0 | 0.00 | 0.00 | 0.00 | 62 | 1013.4 |
| 20260504035629 | 8 | 157 | 0.0 | 0.0 | 0.00 | 0.00 | 0.00 | 61 | 1013.6 |
| 20260504035126 | 8 | 154 | 0.0 | 0.0 | 0.00 | 0.00 | 0.00 | 60 | 1013.5 |
| 20260504034624 | 8 | 143 | 0.0 | 0.0 | 0.00 | 0.00 | 0.00 | 61 | 1013.5 |
| 20260504034121 | 8 | 155 | 0.0 | 0.0 | 0.00 | 0.00 | 0.00 | 60 | 1013.6 |
| 20260504033618 | 8 | 169 | 0.0 | 0.0 | 0.00 | 0.00 | 0.00 | 60 | 1013.3 |
| 20260504033115 | 8 | 139 | 0.0 | 0.0 | 0.00 | 0.00 | 0.00 | 60 | 1013.4 |
| 20260504032612 | 8 | 156 | 0.0 | 0.0 | 0.00 | 0.00 | 0.00 | 60 | 1013.3 |
| 20260504032109 | 8 | 152 | 0.0 | 0.0 | 0.00 | 0.00 | 0.00 | 59 | 1013.3 |
| 20260504031606 | 8 | 147 | 0.0 | 0.0 | 0.00 | 0.00 | 0.00 | 59 | 1013.2 |
| 20260504031102 | 8 | 157 | 0.0 | 0.0 | 0.00 | 0.00 | 0.00 | 58 | 1013.3 |
| 20260504030600 | 8 | 162 | 0.0 | 0.0 | 0.00 | 0.00 | 0.00 | 59 | 1013.2 |
| 20260504030056 | 8 | 164 | 0.0 | 0.0 | 0.00 | 0.00 | 0.00 | 58 | 1013.4 |
| 20260504025553 | 8 | 149 | 0.0 | 0.0 | 0.00 | 0.00 | 0.00 | 57 | 1013.3 |
| 20260504025050 | 8 | 162 | 0.0 | 0.0 | 0.00 | 0.00 | 0.00 | 57 | 1013.4 |
| 20260504024547 | 8 | 161 | 0.0 | 0.0 | 0.00 | 0.00 | 0.00 | 59 | 1013.5 |
| 20260504024044 | 8 | 144 | 0.0 | 0.0 | 0.00 | 0.00 | 0.00 | 60 | 1013.3 |
| 20260504023540 | 7 | 156 | 0.0 | 0.0 | 0.00 | 0.00 | 0.00 | 60 | 1013.5 |
| 20260504023036 | 7 | 162 | 0.0 | 0.0 | 0.00 | 0.00 | 0.00 | 61 | 1013.4 |